Tracking 30415 objects as of 15-May-2025
HD Live streaming from Space Station
objects crossing your sky now

ATLAS 5 CENTAUR DEB

Track ATLAS 5 CENTAUR DEB now!


NORAD ID: 44647
Int'l Code: 2018-079H
Perigee: 8,554.4 km
Apogee: 34,154.8 km
Inclination: 13.1 °
Period: 765.7 minutes
Semi major axis: 27725 km
RCS: Unknown
Launch date: October 17, 2018
Source: United States (US)
Launch site: AIR FORCE EASTERN TEST RANGE (AFETR)

Note: This is SATELLITE DEBRIS
Your satellite tracking list
Your tracking list is empty




NASA's NSSDC Master Catalog

Two Line Element Set (TLE):
1 44647U 18079H   25133.03459020 -.00000084  00000-0  00000-0 0  9990
2 44647  13.0507  57.0525 4616751 273.6094  36.6630  1.88053842 45055
Source of the keplerian elements: AFSPC